Montpelier, VT

2:28 AM EDT on September 24, 2017 (GMT -0400)
Knapp State

Weather History for KMPV - April, 2013

Change the Weather History Date:

Wednesday, April 17, 2013

  Actual Average Record
Temperature  
Mean Temperature 41 °F 43 °F  
Max Temperature 53 °F 54 °F 86 °F (1976)
Min Temperature 29 °F 32 °F 14 °F (2014)
Degree Days  
Heating Degree Days 24 22  
Month to date heating degree days 478 433  
Since 1 July heating degree days 7091 7458  
Cooling Degree Days 0 0  
Month to date cooling degree days 0 0  
Year to date cooling degree days 0 0  
Moisture  
Dew Point 30 °F    
Average Humidity 55    
Maximum Humidity 75    
Minimum Humidity 35    
Precipitation  
Precipitation 0.00 in 0.09 in 0.51 in (1967)
Month to date precipitation 1.41 1.48  
Year to date precipitation 4.54 8.36  
Sea Level Pressure  
Sea Level Pressure 30.29 in    
Wind  
Wind Speed 7 mph (NW)    
Max Wind Speed 20 mph    
Max Gust Speed 24 mph    
Visibility 10 miles    
Events      
T = Trace of Precipitation, MM = Missing Value Source: NWS Daily Summary

Daily Weather History Graph

Daily Weather History Graph

Search for Another Location

Airport or City:

Trip Planner

Search our weather history database for the weather conditions in past years. The results will help you decide how hot, cold, wet, or windy it might be!

Date:

Astronomy

Apr. 17, 2013 Rise Set
Actual Time 6:02 AM EDT 7:37 PM EDT
Civil Twilight 5:32 AM EDT 8:07 PM EDT
Nautical Twilight 4:55 AM EDT 8:44 PM EDT
Astronomical Twilight 4:16 AM EDT 9:24 PM EDT
Moon 11:09 AM EDT (4/17) 1:17 AM EDT (4/17)
Length of Visible Light 14h 35m
Length of Day
13h 34m
Waxing Crescent, 42% of the Moon is Illuminated
Apr 17
Waxing Crescent
Apr 18
First Quarter
Apr 25
Full
May 2
Last Quarter
May 9
New

Hourly Weather History & Observations

Time (EDT) Temp. Windchill Dew Point Humidity Pressure Visibility Wind Dir Wind Speed Gust Speed Precip Events Conditions
12:51 AM 46.9 °F - 37.9 °F 71% 30.13 in 10.0 mi Calm Calm - N/A   Mostly Cloudy
1:51 AM 46.0 °F 44.8 °F 37.0 °F 71% 30.16 in 10.0 mi North 3.5 mph - N/A   Overcast
2:06 AM 44.6 °F 40.2 °F 37.4 °F 76% 30.14 in 10.0 mi NNW 8.1 mph - N/A   Overcast
2:28 AM 44.6 °F 40.2 °F 35.6 °F 71% 30.15 in 10.0 mi NNW 8.1 mph - N/A   Overcast
2:51 AM 43.0 °F 40.3 °F 34.0 °F 71% 30.18 in 10.0 mi Variable 4.6 mph - N/A   Mostly Cloudy
3:51 AM 41.0 °F 35.8 °F 30.9 °F 67% 30.19 in 10.0 mi NW 8.1 mph - N/A   Mostly Cloudy
4:51 AM 39.9 °F 35.8 °F 28.9 °F 65% 30.21 in 10.0 mi NW 5.8 mph - N/A   Clear
5:51 AM 37.9 °F 35.5 °F 28.9 °F 70% 30.22 in 10.0 mi NNW 3.5 mph - N/A   Clear
6:51 AM 37.9 °F 32.7 °F 28.9 °F 70% 30.24 in 10.0 mi NW 6.9 mph - N/A   Clear
7:51 AM 41.0 °F 35.8 °F 30.0 °F 65% 30.25 in 10.0 mi NW 8.1 mph - N/A   Clear
8:51 AM 43.0 °F 37.7 °F 30.9 °F 62% 30.27 in 10.0 mi NNW 9.2 mph - N/A   Mostly Cloudy
9:51 AM 44.1 °F 36.8 °F 30.0 °F 58% 30.28 in 10.0 mi WNW 16.1 mph 20.7 mph N/A   Clear
10:51 AM 46.0 °F 40.2 °F 30.9 °F 56% 30.30 in 10.0 mi NNW 12.7 mph 19.6 mph N/A   Partly Cloudy
11:51 AM 46.9 °F - 30.0 °F 52% 30.31 in 10.0 mi NW 11.5 mph 20.7 mph N/A   Clear
12:51 PM 48.9 °F - 30.0 °F 48% 30.29 in 10.0 mi NNW 11.5 mph - N/A   Clear
1:51 PM 50.0 °F - 28.9 °F 44% 30.31 in 10.0 mi NW 13.8 mph 19.6 mph N/A   Partly Cloudy
2:51 PM 52.0 °F - 28.9 °F 41% 30.32 in 10.0 mi NW 12.7 mph 23.0 mph N/A   Clear
3:51 PM 51.1 °F - 27.0 °F 39% 30.34 in 10.0 mi NNW 12.7 mph 23.0 mph N/A   Clear
4:51 PM 51.1 °F - 25.0 °F 36% 30.35 in 10.0 mi NW 12.7 mph 21.9 mph N/A   Clear
5:51 PM 50.0 °F - 26.1 °F 39% 30.36 in 10.0 mi North 8.1 mph - N/A   Clear
6:51 PM 48.0 °F - 25.0 °F 41% 30.38 in 10.0 mi WNW 9.2 mph - N/A   Clear
7:51 PM 45.0 °F - 25.0 °F 46% 30.40 in 10.0 mi Calm Calm - N/A   Clear
8:51 PM 37.0 °F - 26.1 °F 65% 30.42 in 10.0 mi Calm Calm - N/A   Clear
9:51 PM 35.1 °F - 26.1 °F 70% 30.40 in 10.0 mi Calm Calm - N/A   Clear
10:51 PM 33.1 °F - 26.1 °F 75% 30.40 in 10.0 mi Calm Calm - N/A   Clear
11:51 PM 34.0 °F - 25.0 °F 70% 30.41 in 10.0 mi Calm Calm - N/A   Clear